Track STARLINK-1169 now! 10-day predictions STARLINK-1169 is classified as:
1 45061U 20006T 21018.54158955 .00000408 00000-0 46319-4 0 9997 2 45061 53.0575 68.9449 0001383 61.1538 298.9589 15.06396055 53684